Tracking 33200 objects as of 18-Feb-2026
HD Live streaming from Space Station
objects crossing your sky now

STARLINK-5574

Track STARLINK-5574 now!
10-day predictions
STARLINK-5574 is classified as:


NORAD ID: 55362
Int'l Code: 2023-013AH
Perigee: 565.4 km
Apogee: 566.9 km
Inclination: 43.0 °
Period: 95.8 minutes
Semi major axis: 6937 km
RCS: Unknown
Launch date: January 26, 2023
Source: United States (US)
Launch site: AIR FORCE EASTERN TEST RANGE (AFETR)
Your satellite tracking list
Your tracking list is empty




NASA's NSSDC Master Catalog

Two Line Element Set (TLE):
1 55362U 23013AH  26048.03932466  .00001469  00000-0  12377-3 0  9996
2 55362  43.0042  39.4792 0001074 257.4960 102.5762 15.02547680168753
Source of the keplerian elements: AFSPC